Location: Deufringen
(48.6817°N, 8.8707°E)
Time: 19:53:16
(UTC+00:00)

Daily predictions for brighter satellites

Satellite Brightness Start Highest point End
(mag) Time Altitude Azimuth Time Altitude Azimuth Time Altitude Azimuth
Cosmos 2233 Rocket 4.5 17:45:46 10° SSW 17:51:54 68° WNW 17:58:06 10° N
In-Cosmos 22 4.4 17:47:23 10° N 17:52:52 50° ENE 17:58:12 10° SSE
USA 267 3.8 17:47:35 10° NE 17:54:04 63° NNW 18:00:32 10° WSW
Cosmos 1943 Rocket 2.3 17:49:24 10° NNW 17:54:58 85° WSW 18:00:30 10° SSE
SJ-6B 3.4 17:52:11 10° SE 17:55:22 30° ENE 17:58:33 10° N
KORONAS-FOTON 3.8 17:52:00 10° N 17:55:43 85° W 17:59:22 10° S
Okean 3 Rocket 3.8 17:51:28 10° SSE 17:55:45 50° E 18:00:01 10° NNE
Cosmos 2150 Rocket 4.3 17:50:53 10° NNW 17:55:52 47° ENE 18:00:48 10° SE
Iridium 4 Rocket 3.1 17:51:59 10° N 17:56:10 88° W 18:00:29 10° S
NOSS 3-3 (A) 3.9 17:51:42 10° SSW 17:56:54 55° ESE 18:03:00 10° NE
Cosmos 1408 Rocket 4.3 17:53:59 10° SSE 17:57:53 32° E 18:01:49 10° NNE
SL-08 R/B 4.0 17:54:06 10° NNE 17:58:36 34° E 18:03:02 10° SSE
Cosmos 2298 Rocket 4.3 17:53:48 10° NNW 17:58:59 50° ENE 18:04:07 10° SE
Cosmos 158 Rocket 3.9 17:57:07 10° S 18:01:52 56° ESE 18:06:39 10° NNE
SeaSat 1 2.5 17:57:00 10° NE 18:01:52 59° ESE 18:06:42 10° SSW
Helios 1A 3.9 17:58:59 10° NE 18:02:21 25° E 18:05:43 10° SSE
Cosmos 1513 Rocket 4.4 17:58:07 10° S 18:04:06 67° E 18:10:14 10° NNE
Sich 1 4.0 18:01:31 10° SE 18:05:06 26° E 18:08:44 10° NNE
Okean O Rocket 3.3 18:04:05 10° E 18:06:44 16° ENE 18:09:22 10° NNE
Cosmos 1328 Rocket 4.4 18:02:38 10° NNW 18:06:52 55° W 18:11:05 10° S
Tiangong 0.2 18:05:51 10° S 18:07:15 12° SSE 18:08:40 10° SE
COSMO-SKYMED 1 3.4 18:03:07 10° N 18:07:23 56° WNW 18:11:38 10° SSW
Cosmos 1656 Rocket 4.3 18:03:20 10° NNW 18:08:38 40° NE 18:13:51 10° ESE
Cosmos 1607 4.4 18:03:58 10° S 18:09:59 43° ESE 18:16:01 10° NE
Cosmos 2297 4.4 18:04:50 10° NNW 18:10:04 37° NE 18:15:16 10° ESE
Aureole 3 Rocket 4.1 18:06:38 10° SSE 18:11:17 29° E 18:14:55 10° NE
Meteor 1-4 Rocket 4.4 18:10:32 10° NW 18:12:46 25° W 18:15:00 10° SSW
Cosmos 2369 Rocket 3.0 18:09:40 10° NNW 18:14:53 34° NE 18:19:41 12° ESE
Helios 1B rocket 3.0 18:11:38 10° S 18:15:24 58° WSW 18:19:13 10° NNW
CZ-4 R/B 1.9 18:12:00 10° SE 18:15:36 38° ENE 18:19:17 10° N
TRACE 4.3 18:14:29 10° NNE 18:17:50 63° ESE 18:21:08 10° S
Cosmos 1464 Rocket 4.0 18:11:50 10° S 18:18:06 66° E 18:24:26 10° NNE
ARIANE 6 FM1 Upper Stage 4.3 18:17:21 10° SSE 18:19:58 16° ESE 18:21:45 13° E
Cosmos 1980 4.0 18:14:46 10° SW 18:20:27 74° WNW 18:26:10 10° NNE
NOSS 3-4 (A) 4.0 18:14:51 10° NW 18:21:26 59° NE 18:28:32 12° ESE
NOSS 3-4 (C) 4.0 18:14:56 10° NW 18:21:31 58° NE 18:28:35 12° ESE
CZ-4B R/B 3.2 18:21:28 10° SE 18:25:20 47° ENE 18:29:23 10° N
Meteor 1-13 Rocket 4.3 18:21:26 10° N 18:27:17 85° E 18:32:58 10° SSE
Cosmos 1805 Rocket 3.9 18:24:45 10° SSE 18:28:49 42° E 18:32:57 10° NNE
Cosmos 2228 Rocket 4.3 18:26:32 10° NNE 18:30:18 24° ENE 18:32:38 17° ESE
Cosmos 1441 Rocket 4.3 18:29:41 14° SE 18:31:36 21° E 18:34:21 10° NE
Cosmos 2084 Rocket 4.3 18:30:09 10° S 18:33:48 27° ESE 18:37:01 12° ENE
Cosmos 1975 3.6 18:31:21 10° SSE 18:34:44 29° E 18:38:08 10° NNE
Resurs 01 Rocket 2.0 18:30:32 10° SE 18:34:44 45° ENE 18:38:57 10° N
Okean-O 4.1 18:39:41 17° E 18:40:59 20° ENE 18:44:09 10° NNE
Cosmos 2034 Rocket 3.9 18:39:09 10° S 18:45:16 71° E 18:51:25 10° NNE
Cosmos 1707 Rocket 4.4 18:42:19 10° N 18:46:15 30° ENE 18:47:57 23° ESE
Meteor PRIRODA 3.6 18:43:33 10° S 18:46:48 69° WSW 18:50:05 10° NNW
USA 306 3.4 18:43:53 10° WNW 18:46:56 37° NNE 18:48:52 21° ENE
ISS -3.1 18:44:03 10° WNW 18:47:20 48° N 18:49:13 22° ENE
Cosmos 2208 Rocket 4.4 18:45:58 10° SSW 18:51:14 70° WNW 18:56:38 10° NNE
Cosmos 1666 Rocket 4.5 18:51:16 25° ESE 18:51:52 26° E 18:55:28 10° NNE
ACS3 Solar Sail 2.1 18:48:36 14° SE 18:54:02 51° ENE 19:00:12 10° N
SL-16 R/B 2.1 18:49:34 10° SSW 18:55:10 66° ESE 19:00:48 10° NNE
Cosmos 1315 Rocket 3.7 18:53:24 10° NNW 18:57:15 49° W 19:01:04 10° S
Cosmos 1805 3.0 18:54:12 10° S 18:57:50 87° W 19:01:32 10° N
SPOT 1/Viking Rocket 4.4 19:01:15 10° S 19:06:14 50° W 19:11:16 10° NNW
Okean 3 3.9 19:03:52 10° N 19:07:49 39° ENE 19:08:32 36° E
Cosmos 1943 3.9 19:07:43 29° ESE 19:08:15 29° ESE 19:13:04 10° NE
Meteor 1-11 Rocket 4.3 19:02:51 10° SSW 19:08:18 58° WNW 19:13:46 10° N
ATLAS CENTAUR R/B 3.7 19:05:48 10° W 19:08:37 20° NNW 19:11:32 10° NNE
SL-14 R/B 3.4 19:05:48 10° NNW 19:09:37 71° W 19:12:46 15° S
Cosmos 783 Rocket 4.4 19:05:55 10° S 19:11:08 66° ESE 19:16:20 10° NNE
ATLAS 2AS CENTAUR R/B 4.3 19:05:39 10° NW 19:11:13 24° N 19:16:25 11° ENE
PSLV R/B 4.3 19:14:51 35° NE 19:14:51 35° NE 19:17:43 10° N
Meteor 1-21 4.2 19:08:58 10° N 19:14:47 86° E 19:19:45 15° SSE
CSL-04 Rocket 3.5 19:11:58 16° SSE 19:16:15 88° ENE 19:21:34 10° NNW
CZ-4B R/B 3.2 19:13:15 13° SSE 19:18:06 83° WSW 19:23:27 10° NNW
Cosmos 2263 4.2 19:13:20 10° NNW 19:19:02 68° ENE 19:21:32 34° SE
USA 186 2.9 19:24:41 23° SSW 19:26:19 42° W 19:29:24 10° NNW
Cosmos 1743 Rocket 4.4 19:29:11 10° SSW 19:33:23 49° WNW 19:37:38 10° N
Cosmos 2237 Rocket 4.3 19:29:26 10° WSW 19:34:10 27° NW 19:38:56 10° NNE
USA 267 4.2 19:31:14 14° ENE 19:36:31 43° N 19:42:39 10° WNW
Cosmos 2026 Rocket 4.3 19:31:12 10° NNW 19:37:18 64° W 19:43:18 10° S
SeaSat 1 4.5 19:34:52 10° NNE 19:39:01 28° NW 19:43:09 10° WSW
Cosmos 1766 3.4 19:41:43 56° NNE 19:41:43 56° NNE 19:44:42 10° N
Cosmos 2266 Rocket 4.3 19:35:41 10° N 19:41:45 46° ENE 19:42:48 42° E
Okean O Rocket 1.7 19:41:03 42° S 19:42:27 73° WSW 19:46:53 10° NNW
Tiangong 0.7 19:40:47 10° SW 19:41:06 12° SW 19:41:06 12° SW
GEOS 3 Rocket 3.6 19:41:58 47° SSE 19:43:30 82° SW 19:48:43 10° NW
CZ-4 R/B 3.7 19:47:17 10° SW 19:50:15 21° W 19:53:16 10° NW
SPOT 5 2.5 19:54:02 82° ENE 19:54:02 82° ENE 19:58:22 10° NNW
ARIANE 6 FM1 Upper Stage 2.9 19:54:29 10° SW 19:58:11 65° WSW 19:58:11 65° WSW
Cosmos 2369 Rocket 2.9 19:53:36 10° NW 19:59:06 49° WSW 20:01:29 31° SSW
Okean 2 3.7 19:55:51 10° N 19:59:09 59° NNW 19:59:09 59° NNW
Terra 2.3 20:00:58 45° NE 20:00:58 45° NE 20:04:46 10° N
Cosmos 2344 4.5 19:53:39 10° NW 20:01:03 44° NNE 20:05:08 30° E
BREEZE-M DEB (TANK) 3.5 19:44:37 10° W 20:02:09 89° SSW 20:03:29 56° ESE
Aureole 3 3.8 19:59:07 10° N 20:03:46 80° E 20:03:54 79° ESE
Okean 1-7 3.4 20:03:57 10° N 20:07:26 58° NNW 20:07:26 58° NNW
Cosmos 2228 Rocket 4.3 20:04:18 10° NNW 20:08:35 40° W 20:10:04 31° SW
Cosmos 1633 Rocket 3.4 20:09:43 64° W 20:09:47 64° WNW 20:14:11 10° N
Resurs 01 Rocket 3.9 20:07:55 10° SW 20:11:21 22° W 20:14:49 10° NW
MetOp-B 4.1 20:11:40 66° SSW 20:12:22 78° WSW 20:17:45 10° NNW
Cosmos 2084 Rocket 4.2 20:08:28 10° WSW 20:12:39 49° NW 20:13:11 45° NNW
Cosmos 1538 Rocket 3.9 20:13:36 81° NE 20:13:36 81° NE 20:18:45 10° NNE
Okean-O 3.1 20:17:08 55° W 20:17:08 55° W 20:21:19 10° NNW
Cosmos 1980 Rocket 4.5 20:15:41 10° N 20:17:41 12° NNE 20:19:05 11° NE
USA 306 4.5 20:16:08 10° WNW 20:17:50 27° WNW 20:17:50 27° WNW
MOS 1 Rocket 3.6 20:20:11 71° SW 20:20:29 73° WSW 20:25:54 10° NNW
Spot 2 Rocket 3.9 20:23:41 54° NNE 20:23:41 54° NNE 20:27:44 10° N
SL-08 ROCKET BODY 4.2 20:16:44 10° N 20:22:55 86° E 20:23:17 80° SSE
ISS -1.1 20:20:58 10° WNW 20:22:09 20° WNW 20:22:09 20° WNW
ERS-1 Rocket 3.1 20:26:14 71° NNW 20:26:14 71° NNW 20:30:45 10° NNW
IRS-1A Rocket 4.2 20:27:25 74° SW 20:27:43 77° WSW 20:33:22 10° NNW
ACS3 Solar Sail 3.3 20:33:51 16° SSW 20:38:15 33° W 20:44:00 10° NNW
SL-16 R/B 4.2 20:34:58 10° WSW 20:39:46 27° NW 20:44:34 10° NNE
SPOT 3 Rocket 4.2 20:41:30 50° N 20:41:30 50° N 20:45:19 10° NNW
Meteor 2-5 Rocket 4.3 20:39:58 10° N 20:44:37 50° NNE 20:44:37 50° NNE
Cosmos 1943 3.8 20:49:01 26° WSW 20:52:00 52° NW 20:57:33 10° NNE
Ariane Rocket 3.9 20:57:45 45° NNW 20:57:45 45° NNW 21:01:18 10° NNW
Cosmos 1697 Rocket 4.2 20:54:42 10° NNW 20:58:31 28° NNE 20:58:31 28° NNE
ATLAS 2AS CENTAUR R/B 3.3 20:57:16 10° NW 21:03:49 45° NE 21:03:49 45° NE
Cosmos 1655 Rocket 4.2 20:57:37 10° NNW 21:03:30 70° WNW 21:03:30 70° WNW
USA 267 3.7 21:18:34 52° NNE 21:18:52 52° NNE 21:25:12 10° WNW
Terra 4.2 21:39:40 18° WNW 21:39:40 18° WNW 21:41:43 10° NW
Cosmos 1980 Rocket 4.0 21:58:06 10° NNW 22:00:49 26° N 22:00:49 26° N
Cosmos 2344 4.1 22:07:51 10° NW 22:15:07 66° W 22:15:07 66° W
ATLAS 2AS CENTAUR R/B 4.3 22:48:21 10° NW 22:51:13 26° WNW 22:51:13 26° WNW
Cosmos 2322 Rocket 4.4 23:04:29 10° N 23:07:17 21° NNE 23:07:17 21° NNE
Cosmos 2082 Rocket 4.5 23:26:45 18° NNE 23:26:45 18° NNE 23:28:10 10° NNE
SL-16 R/B 4.3 23:32:55 10° NNW 23:34:52 21° NNW 23:34:52 21° NNW
Cosmos 2333 Rocket 4.2 23:48:58 10° NNW 23:51:31 24° N 23:51:31 24° N
